Gainesville, GA

7:06 AM EDT on June 24, 2017 (GMT -0400)
Gilmer Memorial

Weather History for KGVL - April, 2014

Change the Weather History Date:

Friday, April 25, 2014

  Actual Average Record
Temperature  
Mean Temperature 67 °F 63 °F  
Max Temperature 77 °F 73 °F 91 °F (1960)
Min Temperature 57 °F 52 °F 33 °F (1974)
Degree Days  
Heating Degree Days 0 4  
Month to date heating degree days 141 158  
Since 1 July heating degree days 3267 3010  
Cooling Degree Days 2 2  
Month to date cooling degree days 17 24  
Year to date cooling degree days 17 29  
Growing Degree Days 17 (Base 50)    
Moisture  
Dew Point 51 °F    
Average Humidity 58    
Maximum Humidity 78    
Minimum Humidity 38    
Precipitation  
Precipitation 0.00 in 0.13 in 1.67 in (1937)
Month to date precipitation 5.50 2.96  
Year to date precipitation 14.74 18.28  
Snow  
Snow 0.00 in - - ()
Month to date snowfall 0.0  
Since 1 July snowfall T  
Snow Depth -    
Sea Level Pressure  
Sea Level Pressure 29.88 in    
Wind  
Wind Speed 10 mph (SW)    
Max Wind Speed 25 mph    
Max Gust Speed 34 mph    
Visibility 10 miles    
Events      
T = Trace of Precipitation, MM = Missing Value Source: NWS Daily Summary

Daily Weather History Graph

Daily Weather History Graph

Search for Another Location

Airport or City:

Trip Planner

Search our weather history database for the weather conditions in past years. The results will help you decide how hot, cold, wet, or windy it might be!

Date:

Astronomy

Apr. 25, 2014 Rise Set
Actual Time 6:52 AM EDT 8:14 PM EDT
Civil Twilight 6:25 AM EDT 8:41 PM EDT
Nautical Twilight 5:54 AM EDT 9:12 PM EDT
Astronomical Twilight 5:21 AM EDT 9:45 PM EDT
Moon 4:28 AM EDT (4/25) 4:45 PM EDT (4/25)
Length of Visible Light 14h 15m
Length of Day
13h 22m
Waning Crescent, 15% of the Moon is Illuminated
Apr 25
Waning Crescent
Apr 29
New
May 6
First Quarter
May 14
Full
May 21
Last Quarter

Hourly Weather History & Observations

Time (EDT) Temp. Dew Point Humidity Pressure Visibility Wind Dir Wind Speed Gust Speed Precip Events Conditions
12:53 AM 63.0 °F 44.1 °F 50% 29.91 in 10.0 mi East 5.8 mph - N/A   Clear
1:53 AM 63.0 °F 45.0 °F 52% 29.91 in 10.0 mi East 6.9 mph - N/A   Overcast
2:53 AM 62.1 °F 45.0 °F 53% 29.89 in 10.0 mi East 6.9 mph - N/A   Overcast
3:53 AM 61.0 °F 46.0 °F 58% 29.88 in 10.0 mi ESE 4.6 mph - N/A   Partly Cloudy
4:53 AM 60.1 °F 48.0 °F 64% 29.83 in 10.0 mi East 5.8 mph - N/A   Clear
5:53 AM 57.9 °F 48.0 °F 70% 29.83 in 10.0 mi East 5.8 mph - N/A   Partly Cloudy
6:53 AM 57.9 °F 48.9 °F 72% 29.86 in 10.0 mi East 4.6 mph - N/A   Mostly Cloudy
7:53 AM 57.9 °F 50.0 °F 75% 29.87 in 10.0 mi ESE 5.8 mph - N/A   Scattered Clouds
8:51 AM 60.8 °F 53.6 °F 77% 29.91 in 9.0 mi ESE 4.6 mph - N/A   Overcast
8:53 AM 60.1 °F 53.1 °F 78% 29.88 in 9.0 mi ESE 4.6 mph - N/A   Overcast
9:13 AM 61.0 °F 53.1 °F 75% 29.90 in 10.0 mi Calm Calm - N/A   Overcast
9:20 AM 62.1 °F 53.1 °F 72% 29.90 in 10.0 mi SSE 3.5 mph - N/A   Overcast
9:32 AM 63.0 °F 54.0 °F 72% 29.90 in 10.0 mi South 3.5 mph - N/A   Overcast
9:53 AM 64.0 °F 55.0 °F 73% 29.87 in 10.0 mi South 3.5 mph - N/A   Overcast
10:53 AM 69.1 °F 60.1 °F 73% 29.86 in 10.0 mi WSW 12.7 mph - N/A   Mostly Cloudy
11:09 AM 70.0 °F 60.1 °F 71% 29.89 in 10.0 mi WSW 13.8 mph 23.0 mph N/A   Scattered Clouds
11:53 AM 73.9 °F 59.0 °F 59% 29.84 in 10.0 mi WSW 15.0 mph 20.7 mph N/A   Partly Cloudy
12:53 PM 73.9 °F 53.1 °F 48% 29.85 in 10.0 mi West 18.4 mph 28.8 mph N/A   Scattered Clouds
1:53 PM 75.0 °F 51.1 °F 43% 29.84 in 10.0 mi WNW 20.7 mph 26.5 mph N/A   Mostly Cloudy
2:53 PM 75.9 °F 50.0 °F 40% 29.85 in 10.0 mi WNW 15.0 mph 28.8 mph N/A   Partly Cloudy
3:53 PM 75.9 °F 50.0 °F 40% 29.84 in 10.0 mi WNW 17.3 mph 28.8 mph N/A   Partly Cloudy
4:53 PM 77.0 °F 50.0 °F 39% 29.85 in 10.0 mi West 13.8 mph 24.2 mph N/A   Partly Cloudy
5:53 PM 75.9 °F 48.9 °F 38% 29.86 in 10.0 mi West 13.8 mph 26.5 mph N/A   Clear
6:53 PM 75.0 °F 48.9 °F 40% 29.85 in 10.0 mi West 13.8 mph - N/A   Clear
7:53 PM 72.0 °F 48.9 °F 44% 29.86 in 10.0 mi West 11.5 mph 21.9 mph N/A   Clear
8:53 PM 70.0 °F 48.9 °F 47% 29.89 in 10.0 mi West 11.5 mph - N/A   Clear
9:53 PM 68.0 °F 50.0 °F 52% 29.92 in 10.0 mi NW 8.1 mph - N/A   Clear
10:53 PM 66.0 °F 48.9 °F 54% 29.93 in 10.0 mi NW 9.2 mph - N/A   Clear
11:53 PM 64.0 °F 48.9 °F 58% 29.94 in 10.0 mi NNW 5.8 mph - N/A   Clear